Regional Weather Roundup
Issued by NWS

Home | Current Version | Previous Version | Graphics & Text | Print | Product List | Glossary On
Versions: 1 2 3 4 5 6 7 8 9 10 11 12 13 14 15 16 17 18 19 20 21 22 23 24 25 26 27 28 29 30 31 32 33 34 35 36 37 38 39 40 41 42 43 44 45 46 47 48 49 50
000
ASUS43 KDMX 300207
RWRIA

WEATHER ROUNDUP FOR IOWA
NATIONAL WEATHER SERVICE DES MOINES IA
900 PM CDT MON SEP 29 2014

NOTE: "FAIR" INDICATES FEW OR NO CLOUDS BELOW 12,000 FEET WITH NO
SIGNIFICANT WEATHER AND/OR OBSTRUCTIONS TO VISIBILITY.

* - THESE STATIONS ARE NOT NWS STATIONS...THUS NOT UNDER NWS
QUALITY CONTROL.  THEY ALSO DO NOT REPORT WEATHER SUCH
AS PRECIPITATION OR FOG.

IAZ001>003-012>014-020>022-031>034-043>046-300300-
   NORTHWEST IOWA

CITY           SKY/WX    TMP DP  RH WIND       PRES   REMARKS
CARROLL *      MOCLDY    63  61  94 NE13      30.00R
CHEROKEE *     CLOUDY    61  59  94 NE9       30.01S
DENISON *      CLEAR     64  63  94 NE7       29.97R
LE MARS *        N/A     63  59  88 E9        29.99S
ORANGE CITY *  PTCLDY    63  57  82 E12G17    30.00S
SHELDON *      CLEAR     59  57  94 E8G14     30.01S
SIOUX CITY     CLEAR     66  60  81 E9        29.96R
SPENCER        CLEAR     58  54  86 E10       30.03R
STORM LAKE *   CLOUDY    61  57  88 E12G17    30.02S
$$

IAZ055>058-069>071-079>083-090>094-300300-
   SOUTHWEST IOWA

CITY           SKY/WX    TMP DP  RH WIND       PRES   REMARKS
ATLANTIC *     PTCLDY    68  63  83 N6        29.96R
AUDUBON *      CLEAR     66  59  77 NE5       29.99S
CLARINDA *     CLEAR     59  55  88 CALM      29.97R
COUNCIL BLFS *   N/A     70  61  73 E5        29.94S
CRESTON *      CLEAR     68  59  73 S5        29.98R
HARLAN  *      CLEAR     68  63  83 N6        30.00R
LAMONI         CLEAR     74  54  49 SE5       29.97S
RED OAK *      CLEAR     63  57  82 CALM      29.95S HAZE
SHENANDOAH *   CLEAR     66  55  68 SE6       29.95S
$$

IAZ047>049-059>061-072>074-084-300300-
   CENTRAL IOWA

CITY           SKY/WX    TMP DP  RH WIND       PRES   REMARKS
AMES           CLEAR     64  59  83 NE10      30.00R
ANKENY *       MOCLDY    68  63  83 NE13      29.98R
CHARITON *     PTCLDY    68  63  83 S3        29.97S
DES MOINES     PTCLDY    73  62  68 NE10      29.97R
GRINNELL*      CLEAR     66  61  82 N6        30.00R
KNOXVILLE *    MOCLDY    72  61  68 CALM      29.95S
MARSHALLTOWN   CLEAR     62  58  86 N7        29.99S
PELLA *        MOCLDY    72  61  68 N6        29.98R
PERRY *          N/A     66  61  83 NE6       29.99R
$$

IAZ004>006-015-016-023>025-035-036-300300-
   NORTH CENTRAL IOWA

CITY           SKY/WX    TMP DP  RH WIND       PRES   REMARKS
ALGONA *       CLEAR     59  54  82 NE10      30.04R
CLARION *      CLEAR     59  57  94 NE6       30.03R
ESTHERVILLE    CLEAR     55  50  83 NE10      30.04R
FORT DODGE *   CLEAR     61  55  82 NE6       30.02S
MASON CITY     CLEAR     55  50  83 NE8       30.07R
FOREST CITY *  CLEAR     55  50  82 NE10      30.05S
IOWA FALLS *     N/A     61  55  82 NE8       30.03R
$$

IAZ007>011-017>019-026>030-037>042-050>054-066-300300-
   NORTHEAST IOWA

CITY           SKY/WX    TMP DP  RH WIND       PRES   REMARKS
CHARLES CITY * MOCLDY    54  50  87 NE12      30.06S
CLINTON *      MOCLDY    68  61  77 NE20G25   29.99R
DECORAH *      CLOUDY    54  50  87 NE5       30.05S
MONTICELLO *   PTCLDY    64  57  77 N10G17    30.00R
OELWEIN *      CLOUDY    57  52  82 NE15      30.03S
WATERLOO       CLEAR     59  52  77 NE12      30.02R
$$

IAZ064-065-067-068-078-300300-
   EAST CENTRAL IOWA

CITY           SKY/WX    TMP DP  RH WIND       PRES   REMARKS
IOWA CITY      CLEAR     70  63  78 N13       29.97R
MT. PLEASANT * CLEAR     70  57  64 SW3       29.95S
MUSCATINE *    MOCLDY    70  59  68 CALM      29.94S
$$

IAZ062-063-075>077-085>089-095>099-300300-
   SOUTHEAST IOWA

CITY           SKY/WX    TMP DP  RH WIND       PRES   REMARKS
BURLINGTON     CLEAR     65  60  84 W3        29.95S
FAIRFIELD *    CLEAR     66  59  77 W3        29.96S
FORT MADISON * CLEAR     73  57  56 CALM      29.97R
KEOKUK *       CLEAR     66  63  88 CALM      29.95S
OSKALOOSA *      N/A     70  59  69 CALM      29.97R
CENTERVILLE *    N/A     63  61  94 CALM      29.99R
OTTUMWA        CLEAR     66  60  81 CALM      29.96R
WASHINGTON *   PTCLDY    70  63  78 W5        29.95S
$$

ABBREVIATIONS USED IN REMARKS
   TC - TEMPERATURES IN CELSIUS
  WCI - WIND CHILL INDEX
   HX - HEAT INDEX
  VSB - VISIBILITY
$$



USA.gov is the U.S. government's official web portal to all federal, state and local government web resources and services.